Regional Weather Roundup
Issued by NWS Albany, NY

Home | Current Version | Previous Version | Text Only | Print | Product List | Glossary On
Versions: 1 2 3 4 5 6 7 8 9 10 11 12 13 14 15 16 17 18 19 20 21 22 23 24 25 26 27 28 29 30 31 32 33 34 35 36 37 38 39 40 41 42 43 44 45 46 47 48 49 50
000
ASUS41 KALY 020710
RWRALY

NEW YORK STATE HOURLY WEATHER ROUNDUP
NATIONAL WEATHER SERVICE ALBANY NY
300 AM EDT SAT AUG 02 2014

NOTE: "FAIR" INDICATES FEW OR NO CLOUDS BELOW 12,000 FEET WITH NO
SIGNIFICANT WEATHER AND/OR NO OBSTRUCTIONS TO VISIBILITY.

NYZ032-033-038>043-046>054-057>066-NYZ062>081-020800-
EAST


CITY           SKY/WX    TMP DP  RH WIND       PRES   REMARKS
ALBANY         CLOUDY    69  64  84 SE3       30.17F
GLENS FALLS    CLOUDY    63  61  93 CALM      30.17F
POUGHKEEPSIE   CLOUDY    68  66  93 CALM      30.17F FOG
NEWBURGH       MOCLDY    68  66  94 CALM      30.20F
MONTGOMERY     CLOUDY    64  62  93 CALM      30.18F
WHITE PLAINS   CLOUDY    68  64  87 E5        30.18F
ISLIP          CLOUDY    72  68  87 NE5       30.16F
NEW YORK CITY  CLOUDY    73  62  68 E3        30.16F
CENTRAL PARK   CLOUDY    72  59  63 CALM      30.19F
$$

NYZ005>009-017-018-044>046-055-056-020800-
CENTRAL


CITY           SKY/WX    TMP DP  RH WIND       PRES   REMARKS
FULTON         PTCLDY    65  61  87 SE5       30.11F
SYRACUSE       PTCLDY    67  62  84 CALM      30.12S
ROME           MOCLDY    66  61  84 E7        30.16F
ELMIRA         PTCLDY    60  60 100 CALM      30.15F FOG
BINGHAMTON     CLOUDY    64  60  87 S5        30.18F
MONTICELLO     CLOUDY    61  61 100 CALM      30.22F VSB 1
$$

NYZ026>034-041>043-020800-
NORTH


CITY           SKY/WX    TMP DP  RH WIND       PRES   REMARKS
WATERTOWN      PTCLDY    65  59  81 CALM      30.12S
FORT DRUM      NOT AVBL
MASSENA        PTCLDY    59  58  96 CALM      30.14S
SARANAC LAKE   PTCLDY    51  50  96 CALM      30.19S FOG
PLATTSBURGH    PTCLDY    60  60 100 CALM      30.15S FOG
$$

NYZ001>004-010>016-019>021-020800-
WEST


CITY           SKY/WX    TMP DP  RH WIND       PRES   REMARKS
NIAGARA FALLS  CLEAR     63  60  90 E3        30.10F
BUFFALO        MOCLDY    67  60  78 S3        30.11F
DUNKIRK        LGT RAIN  66  61  84 SW15G25   30.12S
JAMESTOWN      PTCLDY    59  55  88 S5        30.16S
WELLSVILLE     PTCLDY    62  58  86 SW3       30.19F
ROCHESTER      CLOUDY    64  62  93 SW3       30.11F FOG
PENN YAN       PTCLDY    64  61  90 CALM      30.14S
$$

             KEY
       WCI = WIND CHILL INDEX
       VSB = VISIBILITY
       HX  = HEAT INDEX
$$



USA.gov is the U.S. government's official web portal to all federal, state and local government web resources and services.